This demonstration page uses our WeatherBlox Daily Observations layout. Learn more.

Hourly Observations for June 16, 2016

Temp ( °F °C ) Dew Point ( °F °C ) Humidity (%) Winds ( mph kmh ) Pressure ( in mb ) Visibility ( mi km ) Precip ( " mm )
12:15 am 00:15 Clear 73 22.7 56 13.2 55 55 SSE 10 17 29.74 1007 10 16.09344 0 0
12:35 am 00:35 Clear 73 23 55 12.5 52 52 SSE 10 17 29.74 1007 10 16.09344 0 0
12:55 am 00:55 Clear 72 22 55 12.5 55 55 SSE 9 15 29.77 1008 10 16.09344 0 0
1:15 am 01:15 Clear 71 21.5 54 12.3 56 56 SSE 8 13 29.8 1009 10 16.09344 0 0
1:35 am 01:35 Clear 71 21.6 54 12 55 55 SSE 8 13 29.8 1009 10 16.09344 0 0
1:55 am 01:55 Clear 71 21.5 54 12.1 55 55 S 8 13 29.8 1009 10 16.09344 0 0
2:15 am 02:15 Clear 69 20.8 55 12.5 59 59 S 7 11 29.8 1009 10 16.09344 0 0
2:35 am 02:35 Clear 69 20.5 55 12.6 61 61 S 5 7 29.8 1009 10 16.09344 0 0
2:55 am 02:55 Clear 68 20.2 55 12.9 63 63 SSE 5 7 29.8 1009 10 16.09344 0 0
3:15 am 03:15 Clear 66 18.7 56 13.3 71 71 SSE 5 7 29.77 1008 10 16.09344 0 0
3:35 am 03:35 Clear 67 19.6 56 13.3 67 67 SSE 6 9 29.77 1008 10 16.09344 0 0
3:55 am 03:55 Clear 69 20.8 55 12.7 60 60 SSE 7 11 29.77 1008 10 16.09344 0 0
4:15 am 04:15 Clear 69 20.5 55 12.7 61 61 S 7 11 29.77 1008 10 16.09344 0 0
4:35 am 04:35 Clear 69 20.7 55 12.6 60 60 S 8 13 29.77 1008 10 16.09344 0 0
4:55 am 04:55 Clear 69 20.6 55 12.6 60 60 S 10 17 29.77 1008 10 16.09344 0 0
5:15 am 05:15 Clear 69 20.3 55 13 63 63 S 7 11 29.77 1008 10 16.09344 0 0
5:35 am 05:35 Clear 67 19.3 56 13.5 69 69 SSE 6 9 29.77 1008 10 16.09344 0 0
5:55 am 05:55 Clear 67 19.2 59 14.8 76 76 SE 8 13 29.77 1008 10 16.09344 0 0
6:15 am 06:15 Sunny 67 19.6 59 15.2 76 76 SE 9 15 29.8 1009 10 16.09344 0 0
6:35 am 06:35 Sunny 68 20.1 62 16.6 80 80 SE 10 17 29.8 1009 10 16.09344 0 0
6:55 am 06:55 Sunny 69 20.5 63 17.3 82 82 SSE 9 15 29.8 1009 10 16.09344 0 0
7:15 am 07:15 Sunny 70 21 64 17.6 81 81 SE 12 19 29.8 1009 10 16.09344 0 0
7:35 am 07:35 Sunny 71 21.8 65 18.3 81 81 SSE 12 19 29.8 1009 10 16.09344 0 0
7:55 am 07:55 Sunny 73 22.9 66 18.9 78 78 SSE 13 20 29.77 1008 10 16.09344 0 0
8:15 am 08:15 Sunny 74 23.4 66 18.7 75 75 SSE 15 24 29.77 1008 10 16.09344 0 0
8:35 am 08:35 Sunny 75 23.9 65 18.5 72 72 S 16 26 29.74 1007 10 16.09344 0 0
8:55 am 08:55 Sunny 77 24.8 64 18 66 66 S 16 26 29.74 1007 10 16.09344 0 0
9:15 am 09:15 Sunny 78 25.6 64 17.9 63 63 S 14 22 29.71 1006 10 16.09344 0 0
9:35 am 09:35 Sunny 80 26.6 63 17.2 56 56 S 16 26 29.71 1006 10 16.09344 0 0
9:55 am 09:55 Sunny 81 27 63 17.1 55 55 S 16 26 29.71 1006 10 16.09344 0 0
10:15 am 10:15 Sunny 82 27.7 62 16.8 51 51 S 15 24 29.68 1005 10 16.09344 0 0
10:35 am 10:35 Sunny 82 28 62 16.8 51 51 S 16 26 29.68 1005 10 16.09344 0 0
10:55 am 10:55 Sunny 83 28.4 63 17.1 50 50 S 17 28 29.68 1005 10 16.09344 0 0
11:15 am 11:15 Sunny 85 29.4 63 17.2 48 48 S 16 26 29.65 1004 10 16.09344 0 0
11:35 am 11:35 Sunny 85 29.6 63 17.2 47 47 SSW 15 24 29.65 1004 10 16.09344 0 0
11:55 am 11:55 Sunny 86 30.1 64 17.5 47 47 S 18 30 29.65 1004 10 16.09344 0 0
12:15 pm 12:15 Sunny 86 30.2 63 17.4 46 46 SSE 15 24 29.65 1004 10 16.09344 0 0
12:35 pm 12:35 Sunny 88 30.9 62 16.8 43 43 S 17 28 29.65 1004 10 16.09344 0 0
12:55 pm 12:55 Sunny 89 31.6 62 16.4 40 40 S 16 26 29.65 1004 10 16.09344 0 0
1:15 pm 13:15 Sunny 89 31.9 62 16.7 40 40 S 18 30 29.65 1004 10 16.09344 0 0
1:35 pm 13:35 Sunny 90 32.4 61 16.3 38 38 SSE 22 35 29.65 1004 10 16.09344 0 0
1:55 pm 13:55 Sunny 91 32.7 61 16.3 37 37 S 21 33 29.62 1003 10 16.09344 0 0
2:15 pm 14:15 Sunny 92 33.6 61 16 35 35 SSE 18 30 29.62 1003 10 16.09344 0 0
2:35 pm 14:35 Sunny 93 34 62 16.7 36 36 SSE 21 33 29.59 1002 10 16.09344 0 0
2:55 pm 14:55 Sunny 93 34 62 16.8 36 36 SSE 22 35 29.59 1002 10 16.09344 0 0
3:15 pm 15:15 Sunny 94 34.2 62 16.4 34 34 SSE 24 39 29.59 1002 10 16.09344 0 0
3:35 pm 15:35 Sunny 94 34.5 61 16.2 33 33 SSE 25 41 29.59 1002 10 16.09344 0 0
3:55 pm 15:55 Sunny 95 34.8 61 16.1 33 33 SSE 25 41 29.59 1002 10 16.09344 0 0
4:15 pm 16:15 Sunny 95 35 61 16.2 33 33 SSE 23 37 29.59 1002 10 16.09344 0 0
4:35 pm 16:35 Sunny 95 35.1 60 15.5 31 31 S 23 37 29.59 1002 10 16.09344 0 0
4:55 pm 16:55 Sunny 95 35.1 61 15.9 32 32 SSE 23 37 29.59 1002 10 16.09344 0 0
5:15 pm 17:15 Sunny 95 35.1 60 15.5 31 31 SSE 22 35 29.59 1002 10 16.09344 0 0
5:35 pm 17:35 Sunny 95 35.1 58 14.6 29 29 SSE 20 31 29.59 1002 10 16.09344 0 0
5:55 pm 17:55 Sunny 96 35.3 59 15.1 30 30 S 22 35 29.59 1002 10 16.09344 0 0
6:15 pm 18:15 Sunny 95 35.1 59 15 30 30 SSE 20 31 29.59 1002 10 16.09344 0 0
6:35 pm 18:35 Sunny 95 35 59 14.8 30 30 SSE 18 30 29.59 1002 10 16.09344 0 0
6:55 pm 18:55 Sunny 94 34.5 60 15.3 32 32 SSE 15 24 29.59 1002 10 16.09344 0 0
7:15 pm 19:15 Sunny 93 33.8 60 15.6 33 33 SSE 12 19 29.59 1002 10 16.09344 0 0
7:35 pm 19:35 Sunny 92 33.2 60 15.8 35 35 SSE 12 19 29.59 1002 10 16.09344 0 0
7:55 pm 19:55 Sunny 91 32.5 62 16.7 39 39 SSE 13 20 29.59 1002 10 16.09344 0 0
8:15 pm 20:15 Sunny 89 31.7 63 17.1 42 42 SSE 10 17 29.62 1003 10 16.09344 0 0
8:35 pm 20:35 Sunny 88 31 63 17.3 44 44 SSE 13 20 29.62 1003 10 16.09344 0 0
8:55 pm 20:55 Sunny 86 30.2 64 17.5 47 47 SSE 10 17 29.65 1004 10 16.09344 0 0
9:15 pm 21:15 Clear 85 29.5 64 17.6 49 49 SSE 10 17 29.65 1004 10 16.09344 0 0
9:35 pm 21:35 Clear 83 28.5 64 17.8 52 52 SSE 8 13 29.68 1005 10 16.09344 0 0
9:55 pm 21:55 Clear 82 27.6 64 18 56 56 SSE 9 15 29.68 1005 10 16.09344 0 0
10:15 pm 22:15 Clear 81 27.3 64 18 57 57 SSE 8 13 29.68 1005 10 16.09344 0 0
10:35 pm 22:35 Clear 80 26.6 64 18 59 59 SSE 7 11 29.71 1006 10 16.09344 0 0
10:55 pm 22:55 Clear 79 25.9 64 18 62 62 SE 5 7 29.71 1006 10 16.09344 0 0
11:15 pm 23:15 Clear 78 25.3 65 18.2 65 65 SSE 9 15 29.71 1006 10 16.09344 0 0
11:35 pm 23:35 Clear 80 26.5 66 18.7 62 62 SSE 8 13 29.74 1007 10 16.09344 0 0
11:55 pm 23:55 Clear 80 26.6 66 19 63 63 SSE 9 15 29.74 1007 10 16.09344 0 0

Powered by AerisWeather